Location: Pedholt
(56.0260°N, 10.2097°E)
Time: 07:02:52
(UTC+00:00)

SR - Pass Details

Date: 03 August 2021
Orbit: 581 x 874 km, 66.7° (Epoch: 24 September)

Event Time Altitude Azimuth Distance (km) Brightness Sun altitude
Rises 10:41:08 0° 306° (NW) 3,267 ? 50.5°
Reaches altitude 10° 10:43:54 10° 317° (NW) 2,286 ? 50.6°
Maximum altitude 10:48:30 31° 19° (NNE) 1,250 ? 50.7°
Drops below altitude 10° 10:52:46 10° 82° (E) 2,108 ? 50.9°
Sets 10:55:13 0° 93° (E) 2,972 ? 50.9°
